Location: Aragnouet
(42.7874°N, 0.2165°E)
Time: 00:23:05
(UTC+00:00)

STARLINK-1216 - Pass Details

Date: 09 April 2020
Orbit: 549 x 550 km, 53.0° (Epoch: 02 June)

Event Time Altitude Azimuth Distance (km) Brightness Sun altitude
Rises 20:19:43 0° 307° (NW) 2,727 8.8 -18.7°
Reaches altitude 10° 20:22:04 10° 315° (NW) 1,831 7.4 -19.1°
Maximum altitude 20:26:01 41° 27° (NNE) 802 4.4 -19.7°
Enters shadow 20:27:00 35° 63° (ENE) 900 4.4 -19.8°
